GSAT-18

Last updated on Jan. 19, 2020, 4:37 a.m. UTC

1 41793U 16060A   20018.79632657 -.00000081  00000-0  00000+0 0  9992
2 41793   0.0778 100.2786 0000337 255.2959 122.7323  1.00271071 12059
UTC
Height (km)
Latitude
Longitude
Inclination
Orbital Period
UTC large
Height (km)
Speed (km/s)
/
Latitude / Longitude
Inclination (degrees)
Orbital Period (minutes)
Azimuth
Elevation
Range (km)
Doppler Factor
iOS Compass Heading
iOS Angle

Next 30 passes for location: Hong Kong

Rise time Rise Azimuth (degrees) Set time Set Azimuth (degrees) Duration Max altitude (degrees)

No matching passes for this satellites